Weather History for Blacksburg, VA

Change the Weather History Date:

Thursday, October 13, 2011

  Actual Average Record
Temperature  
Mean Temperature 65 °F 53 °F  
Max Temperature 70 °F 66 °F 83 °F (1954)
Min Temperature 59 °F 40 °F 24 °F (1988)
Degree Days  
Heating Degree Days 0 12  
Month to date heating degree days 125 134  
Since 1 July heating degree days 203 265  
Cooling Degree Days 0 0  
Month to date cooling degree days 0 1  
Year to date cooling degree days 870 570  
Growing Degree Days 16 (Base 50)    
Moisture  
Dew Point 63 °F    
Average Humidity 87    
Maximum Humidity 100    
Minimum Humidity 73    
Precipitation  
Precipitation 0.30 in 0.09 in 1.08 in (1990)
Month to date precipitation 1.51 1.17  
Year to date precipitation 34.93 33.46  
Snow  
Snow 0.00 in - - ()
Month to date snowfall 0.0  
Since 1 July snowfall 0.0  
Since 1 September snowfall 0.0  
Snow Depth 0.00 in    
Sea Level Pressure  
Sea Level Pressure 29.74 in    
Wind  
Wind Speed 4 mph (SE)    
Max Wind Speed 10 mph    
Max Gust Speed 21 mph    
Visibility 5 miles    
Events Fog , Rain    
T = Trace of Precipitation, MM = Missing Value Source: NWS Daily Summary

Daily Weather History Graph

Daily Weather History Graph

Search for Another Location

Airport:

Trip Planner

Search our weather history database for the weather conditions in past years. The results will help you decide how hot, cold, wet, or windy it might be!

Date:

Astronomy

Oct. 13, 2011 Rise Set
Actual Time 7:27 AM EDT 6:47 PM EDT
Civil Twilight 7:01 AM EDT 7:13 PM EDT
Nautical Twilight 6:31 AM EDT 7:44 PM EDT
Astronomical Twilight 6:00 AM EDT 8:14 PM EDT
Moon 7:26 PM EDT (10/13) 8:54 AM EDT (10/13)
Length of Visible Light 12h 12m
Length of Day
11h 20m
Full, 98% of the Moon is Illuminated
Oct 13
Full
Oct 19
Last Quarter
Oct 26
New
Nov 2
First Quarter
Nov 10
Full

Hourly Weather History & Observations

Time (EDT) Temp. Dew Point Humidity Pressure Visibility Wind Dir Wind Speed Gust Speed Precip Events Conditions
12:15 AM 62.6 °F 62.6 °F 100% 29.85 in 4.0 mi Calm Calm - N/A   Overcast
12:35 AM 62.6 °F 62.6 °F 100% 29.84 in 5.0 mi Calm Calm - N/A   Overcast
12:55 AM 62.6 °F 62.6 °F 100% 29.84 in 4.0 mi Calm Calm - N/A   Overcast
1:15 AM 62.6 °F 62.6 °F 100% 29.84 in 2.5 mi Calm Calm - N/A   Overcast
1:35 AM 62.6 °F 62.6 °F 100% 29.83 in 2.5 mi Calm Calm - N/A   Overcast
1:55 AM 62.6 °F 62.6 °F 100% 29.83 in 4.0 mi Calm Calm - N/A   Overcast
2:15 AM 62.6 °F 62.6 °F 100% 29.82 in 3.0 mi Calm Calm - N/A   Overcast
2:35 AM 62.6 °F 62.6 °F 100% 29.82 in 2.5 mi Calm Calm - N/A   Overcast
2:55 AM 62.6 °F 62.6 °F 100% 29.81 in 3.0 mi East 3.5 mph - N/A   Overcast
3:15 AM 62.6 °F 62.6 °F 100% 29.80 in 2.0 mi East 3.5 mph - N/A Rain Rain
3:35 AM 62.6 °F 62.6 °F 100% 29.79 in 0.5 mi Calm Calm - N/A Fog Fog
3:55 AM 62.6 °F 62.6 °F 100% 29.79 in 0.2 mi ESE 3.5 mph - N/A Fog Fog
4:15 AM 62.6 °F 62.6 °F 100% 29.79 in 0.2 mi Calm Calm - N/A Rain Rain
4:35 AM 62.6 °F 62.6 °F 100% 29.79 in 3.0 mi Calm Calm - 0.02 in   Drizzle
4:55 AM 62.6 °F 62.6 °F 100% 29.79 in 0.5 mi Calm Calm - 0.03 in Fog Fog
5:15 AM 62.6 °F 62.6 °F 100% 29.79 in 1.0 mi Calm Calm - N/A   Overcast
5:35 AM 62.6 °F 62.6 °F 100% 29.78 in 0.5 mi Calm Calm - N/A Fog Fog
5:55 AM 62.6 °F 62.6 °F 100% 29.78 in 0.2 mi Calm Calm - N/A Fog Fog
6:15 AM 62.6 °F 62.6 °F 100% 29.78 in 0.5 mi ESE 3.5 mph - N/A Fog Fog
6:35 AM 62.6 °F 62.6 °F 100% 29.78 in 0.2 mi ESE 4.6 mph - N/A Fog Fog
6:55 AM 62.6 °F 62.6 °F 100% 29.78 in 0.2 mi ESE 3.5 mph - N/A Fog Fog
7:15 AM 62.6 °F 62.6 °F 100% 29.77 in 0.2 mi Calm Calm - N/A Fog Fog
7:35 AM 62.6 °F 62.6 °F 100% 29.77 in 0.2 mi Calm Calm - N/A Fog Fog
7:55 AM 62.6 °F 62.6 °F 100% 29.77 in 0.2 mi Calm Calm - N/A Rain Light Rain
8:15 AM 62.6 °F 62.6 °F 100% 29.77 in 2.5 mi Calm Calm - 0.02 in Rain Light Rain
8:35 AM 62.6 °F 62.6 °F 100% 29.77 in 3.0 mi East 4.6 mph - 0.02 in   Overcast
8:55 AM 62.6 °F 62.6 °F 100% 29.77 in 3.0 mi ENE 4.6 mph - 0.02 in   Overcast
9:15 AM 62.6 °F 62.6 °F 100% 29.76 in 5.0 mi East 5.8 mph - N/A   Overcast
9:35 AM 64.4 °F 64.4 °F 100% 29.75 in 7.0 mi East 4.6 mph - N/A   Overcast
10:15 AM 64.4 °F 64.4 °F 100% 29.74 in 3.0 mi East 4.6 mph - 0.03 in Rain Heavy Rain
10:35 AM 64.4 °F 64.4 °F 100% 29.73 in 5.0 mi East 8.1 mph - 0.13 in Rain Heavy Rain
10:55 AM 64.4 °F 64.4 °F 100% 29.73 in 5.0 mi East 10.4 mph - 0.13 in   Overcast
11:15 AM 64.4 °F 64.4 °F 100% 29.72 in 5.0 mi ESE 8.1 mph - N/A   Overcast
11:35 AM 66.2 °F 66.2 °F 100% 29.71 in 10.0 mi SE 6.9 mph - N/A   Overcast
11:55 AM 68.0 °F 68.0 °F 100% 29.71 in 7.0 mi ESE 6.9 mph - N/A   Mostly Cloudy
12:15 PM 68.0 °F 66.2 °F 94% 29.71 in 10.0 mi SSE 8.1 mph - N/A   Mostly Cloudy
12:35 PM 69.8 °F 66.2 °F 88% 29.70 in 10.0 mi SE 10.4 mph - N/A   Scattered Clouds
12:55 PM 69.8 °F 64.4 °F 83% 29.69 in 7.0 mi SE 9.2 mph - N/A   Mostly Cloudy
1:15 PM 69.8 °F 64.4 °F 83% 29.68 in 10.0 mi SSE 13.8 mph 18.4 mph N/A   Mostly Cloudy
1:35 PM 71.6 °F 64.4 °F 78% 29.66 in 10.0 mi SSE 13.8 mph 20.7 mph N/A   Mostly Cloudy
1:55 PM 71.6 °F 62.6 °F 73% 29.65 in 10.0 mi SSE 9.2 mph - N/A   Mostly Cloudy
2:15 PM 69.8 °F 62.6 °F 78% 29.64 in 10.0 mi South 10.4 mph 16.1 mph N/A   Scattered Clouds
2:35 PM 69.8 °F 62.6 °F 78% 29.64 in 10.0 mi South 8.1 mph - N/A   Mostly Cloudy
2:55 PM 66.2 °F 64.4 °F 94% 29.64 in 7.0 mi South 8.1 mph - 0.04 in Rain Light Rain
3:15 PM 66.2 °F 64.4 °F 94% 29.63 in 10.0 mi SSE 8.1 mph - N/A   Mostly Cloudy
3:35 PM 66.2 °F 64.4 °F 94% 29.62 in 10.0 mi South 5.8 mph - N/A   Overcast
4:15 PM 69.8 °F 64.4 °F 83% 29.61 in 10.0 mi SW 8.1 mph - N/A   Overcast
4:35 PM 69.8 °F 62.6 °F 78% 29.61 in 10.0 mi SSW 9.2 mph 17.3 mph N/A   Scattered Clouds
4:55 PM 68.0 °F 62.6 °F 83% 29.61 in 10.0 mi SSW 8.1 mph - N/A   Mostly Cloudy
5:15 PM 68.0 °F 62.6 °F 83% 29.61 in 10.0 mi SSW 8.1 mph - N/A   Mostly Cloudy
5:35 PM 66.2 °F 62.6 °F 88% 29.61 in 10.0 mi South 4.6 mph - N/A   Scattered Clouds
5:55 PM 66.2 °F 60.8 °F 83% 29.61 in 10.0 mi SSW 4.6 mph - N/A   Scattered Clouds
6:15 PM 66.2 °F 60.8 °F 83% 29.62 in 10.0 mi South 6.9 mph - N/A   Mostly Cloudy
6:35 PM 66.2 °F 60.8 °F 83% 29.62 in 10.0 mi SSW 5.8 mph - N/A   Overcast
6:55 PM 64.4 °F 60.8 °F 88% 29.62 in 10.0 mi SSW 4.6 mph - N/A   Scattered Clouds
7:15 PM 64.4 °F 60.8 °F 88% 29.62 in 10.0 mi South 6.9 mph - N/A   Mostly Cloudy
7:35 PM 64.4 °F 60.8 °F 88% 29.63 in 10.0 mi SSW 4.6 mph - N/A   Mostly Cloudy
8:15 PM 62.6 °F 60.8 °F 94% 29.64 in 10.0 mi South 8.1 mph - 0.03 in Rain Light Rain
8:35 PM 60.8 °F 60.8 °F 100% 29.65 in 10.0 mi SW 4.6 mph - 0.03 in   Overcast
8:55 PM 60.8 °F 60.8 °F 100% 29.65 in 10.0 mi SW 3.5 mph - 0.04 in Rain Rain
9:15 PM 60.8 °F 60.8 °F 100% 29.66 in 7.0 mi Calm Calm - N/A   Light Drizzle
9:35 PM 60.8 °F 60.8 °F 100% 29.65 in 10.0 mi SSW 3.5 mph - N/A   Overcast
9:55 PM 59.0 °F 59.0 °F 100% 29.66 in 10.0 mi Calm Calm - N/A Rain Rain
10:15 PM 59.0 °F 59.0 °F 100% 29.65 in 10.0 mi Calm Calm - N/A   Overcast
10:35 PM 57.2 °F 57.2 °F 100% 29.65 in 10.0 mi Calm Calm - N/A   Mostly Cloudy
10:55 PM 57.2 °F 57.2 °F 100% 29.64 in 10.0 mi Calm Calm - N/A Rain Light Rain
11:15 PM 57.2 °F 57.2 °F 100% 29.64 in 10.0 mi Calm Calm - N/A   Overcast
11:35 PM 57.2 °F 57.2 °F 100% 29.65 in 7.0 mi Calm Calm - N/A   Overcast
11:55 PM 57.2 °F 57.2 °F 100% 29.65 in 7.0 mi Calm Calm - N/A   Overcast